Location: Köln
(50.9375°N, 6.9603°E)
Time: 15:13:35
(UTC+02:00)

ISS - Visible Passes

Search period start: 26 September 2023 00:00
Search period end: 06 October 2023 00:00
Orbit: 413 x 421 km, 51.6° (Epoch: 26 September)

Date Brightness Start Highest point End Pass type
(mag) Time Alt. Az. Time Alt. Az. Time Alt. Az.
26 Sep -3.7 20:03:19 10° W 20:06:41 81° N 20:09:48 12° E visible
26 Sep -2.6 21:40:09 10° W 21:42:43 37° WSW 21:42:43 37° WSW visible
27 Sep -3.5 20:51:58 10° W 20:55:16 58° SSW 20:56:25 35° SE visible
28 Sep -3.7 20:03:46 10° WNW 20:07:06 75° SSW 20:10:07 12° ESE visible
28 Sep -1.7 21:40:51 10° W 21:43:01 21° SW 21:43:01 21° SW visible
29 Sep -2.4 20:52:25 10° W 20:55:27 31° SSW 20:56:44 23° S visible
30 Sep -2.9 20:04:04 10° W 20:07:16 44° SSW 20:10:28 10° SE visible
30 Sep -0.9 21:42:33 10° WSW 21:43:22 11° SW 21:43:24 11° SW visible
01 Oct -1.2 20:53:08 10° W 20:55:17 16° SW 20:57:12 11° S visible
02 Oct -1.7 20:04:23 10° W 20:07:07 23° SW 20:09:50 10° SSE visible
04 Oct -0.7 20:05:30 10° WSW 20:06:36 11° SW 20:07:44 10° SSW visible
